Starlink 31034

operational
NORAD ID: 58785 Int'l Des: 2024-011 Owner: SPXS Country: US Constellation: starlink
LEOCIRCULAR

关于 Starlink 31034

正在加载描述...

实时位置

正在加载3D地球...

即将过境

高度历史

Altitude vs Time

uPlot chart will show altitude changes over time

两行轨道根数

1 58785U 24011W 25351.15037504 -.00000407 00000-0 -16052-5 0 9994
2 58785 53.1618 294.6978 0001130 96.0798 264.0331 15.30193582109093
Epoch: Dec 17, 2025 • Age: 15 hours

当前状态

高度 476.7 km
速度 7.63 km/s
星下点 32.27°N, 82.38°E
发射日期 Jan 14, 2024
运行时间 1.9 years
类型 internet

技术详情

分类 Payload
质量 730.00 kg
干质量 700.00 kg
总质量 730.00 kg
长度 0.30 m
直径 4.10 m
跨度 29.00 m
形状 Box + pan
制造商 SPXS
平台类型 Starlink V2M
阶段状态 In Orbit
所有者/国家 SPXS/US

大型星座

Loading constellations...